This is the latest recevied weather packets stored in our database for station/object N8HON. If no packets are shown the sender has not sent any weather packets the latest 10 day(s).
| Time | Temp. | Humidity | Pressure | Rain* | Wind** | Luminosity | Snow |
|---|---|---|---|---|---|---|---|
| 1777917605 | 21.67° C | 44% | 1010.8 hPa | 0 mm | - | 429 W/m² | - |
| 1777917302 | 21.11° C | 44% | 1010.7 hPa | 0 mm | - | 839 W/m² | - |
| 1777916999 | 21.11° C | 48% | 1010.8 hPa | 0 mm | - | 763 W/m² | - |
| 1777916696 | 21.11° C | 47% | 1011 hPa | 0 mm | - | 717 W/m² | - |
| 1777916393 | 21.11° C | 45% | 1010.9 hPa | 0 mm | - | 813 W/m² | - |
| 1777916090 | 21.67° C | 42% | 1010.8 hPa | 0 mm | - | 310 W/m² | - |
| 1777915787 | 21.11° C | 43% | 1011.3 hPa | 0 mm | - | 753 W/m² | - |
| 1777915483 | 21.11° C | 45% | 1011.1 hPa | 0 mm | - | 350 W/m² | - |
| 1777915180 | 20° C | 44% | 1011.3 hPa | 0 mm | - | 340 W/m² | - |
| 1777914877 | 19.44° C | 45% | 1011.3 hPa | 0 mm | - | 415 W/m² | - |
| 1777914574 | 19.44° C | 48% | 1011.3 hPa | 0 mm | - | 334 W/m² | - |
| 1777914270 | 18.89° C | 45% | 1011.4 hPa | 0 mm | - | 335 W/m² | - |
| 1777913967 | 18.89° C | 48% | 1011.4 hPa | 0 mm | - | 232 W/m² | - |
| 1777913664 | 18.89° C | 47% | 1011.5 hPa | 0 mm | - | 229 W/m² | - |
| 1777913361 | 19.44° C | 45% | 1011.6 hPa | 0 mm | - | 262 W/m² | - |
| 1777913057 | 20° C | 45% | 1011.3 hPa | 0 mm | - | 293 W/m² | - |
| 1777912753 | 19.44° C | 46% | 1011.7 hPa | 0 mm | - | 290 W/m² | - |
| 1777912449 | 20° C | 43% | 1011.7 hPa | 0 mm | - | 337 W/m² | - |
| 1777912146 | 19.44° C | 44% | 1011.7 hPa | 0 mm | - | 312 W/m² | - |
| 1777911841 | 19.44° C | 44% | 1011.8 hPa | 0 mm | - | 304 W/m² | - |
| 1777911539 | 19.44° C | 43% | 1011.8 hPa | 0 mm | - | 307 W/m² | - |
| 1777911235 | 19.44° C | 46% | 1011.7 hPa | 0 mm | - | 561 W/m² | - |
| 1777910932 | 19.44° C | 46% | 1011.8 hPa | 0 mm | - | 298 W/m² | - |
| 1777910629 | 18.33° C | 45% | 1012 hPa | 0 mm | - | 304 W/m² | - |
| 1777910326 | 18.33° C | 44% | 1011.6 hPa | 0 mm | - | 285 W/m² | - |
* Rain latest hour (hover to see other rain measurements)
** Current wind speed in m/s (hover to see current wind gust speed)